Theta_e
309 309 309 308 307 308 308 308 307 307 310 312 312 313 317 320 321 321 321 321 322 322 322 323 323 323 323 322 322 321 321 324 326 326 326 326 326 327 327 326 325 325 325 324 324 324 324 325 325 326 326 326 325 324 323 322 322 322 321 321 322 323 325
309 308 308 308 307 307 308 307 307 307 308 309 308 307 311 317 320 320 319 320 321 320 319 320 320 321 322 322 322 319 317 321 325 325 325 325 326 326 325 325 325 325 325 324 324 324 323 323 324 325 324 323 323 323 323 322 322 321 321 321 321 321 322
309 308 308 308 307 308 307 307 308 308 307 307 307 306 306 310 314 318 319 318 317 313 310 310 310 311 313 314 315 313 310 315 322 323 323 323 324 324 324 323 324 324 324 323 323 323 324 323 323 323 321 318 317 320 323 323 320 318 319 320 321 321 320
308 309 308 308 308 308 308 308 307 307 308 307 307 307 306 305 307 311 314 313 309 307 305 306 306 305 306 306 306 306 305 309 316 319 320 319 320 322 322 322 322 322 322 323 323 323 323 322 322 322 320 317 315 318 322 321 317 314 315 317 319 320 320
308 309 309 309 308 308 308 308 308 308 308 308 307 307 307 306 306 307 308 307 306 306 306 306 306 306 306 306 306 306 305 306 309 311 311 311 312 315 319 320 320 320 320 321 321 321 321 322 322 321 320 317 313 315 318 317 314 313 313 315 317 319 319
309 309 309 309 308 309 309 308 308 308 307 308 307 307 307 306 306 306 306 306 306 306 306 306 306 306 306 306 306 306 306 306 306 306 306 306 306 308 311 312 313 313 313 313 311 311 313 315 315 315 314 312 310 312 315 315 314 314 315 318 319 319 319
309 309 309 309 309 309 309 309 309 308 308 308 308 307 307 307 307 307 306 306 306 306 306 306 306 306 306 306 306 306 306 306 306 306 306 305 305 306 306 307 307 306 306 306 306 305 306 307 307 307 307 308 308 310 312 313 314 314 316 319 321 322 323
310 309 309 309 309 309 309 309 309 309 309 308 308 308 308 307 307 307 307 306 306 306 306 306 306 306 306 306 306 306 306 305 306 306 306 305 305 305 305 305 306 305 304 304 304 304 304 304 305 305 305 307 308 310 312 314 315 315 315 316 319 321 322
311 310 310 309 309 309 309 310 310 310 310 309 309 309 308 308 308 307 307 307 307 306 306 306 306 306 306 306 306 306 305 305 305 305 305 305 305 304 304 305 304 304 303 303 303 303 303 303 303 303 303 305 306 307 310 312 314 314 314 314 317 318 318
313 311 312 312 311 311 312 311 310 310 310 310 310 310 309 309 308 308 308 307 307 307 307 307 306 306 306 306 306 306 305 305 305 305 305 304 304 304 304 304 303 303 303 303 303 303 303 303 302 302 303 303 304 304 304 306 309 311 312 311 314 315 316
316 313 314 316 315 315 316 314 313 312 310 309 310 310 310 309 309 309 309 309 308 308 308 307 307 307 307 307 306 306 306 305 305 305 305 305 304 304 304 304 303 304 303 303 303 303 303 303 303 303 303 303 303 303 303 303 304 306 307 307 309 311 313
318 315 316 319 318 317 317 316 315 314 312 310 310 310 311 311 310 310 310 310 310 309 309 308 308 308 308 307 307 307 306 306 306 305 305 305 305 305 304 304 304 305 305 305 305 304 304 304 304 305 306 306 306 306 305 304 304 304 304 305 305 306 308
319 317 317 319 319 319 319 318 317 316 315 314 314 314 314 313 313 313 312 312 311 311 311 310 309 309 308 308 308 308 307 307 307 306 306 305 305 305 305 305 305 305 305 305 306 305 305 305 305 306 307 308 308 308 307 306 306 304 304 304 304 304 304
322 321 319 319 320 320 320 319 319 318 317 317 317 317 317 317 316 317 317 316 314 313 313 312 312 311 310 309 309 308 308 308 308 307 307 307 306 306 306 306 306 306 306 306 306 306 306 305 305 306 306 307 308 308 308 307 307 305 304 304 304 303 303
323 323 323 322 322 322 322 321 320 319 319 319 319 319 318 318 318 319 319 319 318 317 316 315 315 314 313 312 311 310 309 309 309 308 308 307 307 307 306 307 307 306 306 306 305 305 305 305 305 305 305 305 307 307 307 306 305 305 304 304 303 303 302
323 324 324 323 322 322 322 322 321 320 320 319 319 319 318 318 319 320 320 320 320 319 318 318 317 317 316 315 314 313 312 311 310 309 309 308 308 307 307 307 307 307 306 306 305 305 305 305 305 304 304 304 304 304 304 303 303 304 303 303 303 301 300
324 323 322 322 323 323 322 322 322 322 321 320 319 319 318 319 319 320 320 321 321 320 319 319 318 318 318 317 317 316 315 313 312 311 310 309 308 308 308 308 307 307 307 307 306 306 305 305 305 304 304 304 303 303 303 302 302 302 302 302 301 300 299
322 320 319 318 320 321 321 321 321 322 321 320 319 319 319 318 319 319 319 320 320 320 320 319 319 319 319 318 318 317 316 315 314 313 312 311 309 309 308 308 307 307 307 307 307 306 305 304 304 304 303 303 303 303 302 301 301 300 300 300 300 300 299
321 319 317 317 318 319 320 319 318 319 319 318 318 318 318 317 318 318 318 319 320 320 320 320 319 319 319 319 318 318 317 317 316 315 314 312 311 310 309 308 308 307 307 307 307 307 306 304 303 303 303 303 303 303 302 301 300 299 298 298 299 300 300
321 320 318 318 318 318 318 317 317 317 317 317 317 316 317 316 316 316 316 317 318 319 320 319 319 319 319 318 318 318 318 317 316 316 315 314 313 311 311 309 309 308 308 308 308 308 307 305 304 303 302 302 302 302 302 301 300 299 298 298 298 298 298
322 321 320 319 318 317 316 317 318 319 319 318 317 317 317 317 317 317 317 317 317 318 319 319 319 319 319 318 318 318 318 317 317 316 315 315 314 313 312 311 311 310 309 309 309 308 307 306 304 303 302 302 302 302 301 301 300 299 298 299 299 298 298
317 316 315 314 312 312 312 314 317 318 318 317 316 315 315 315 316 316 316 316 316 317 318 318 319 319 319 318 317 318 318 317 317 317 316 315 314 314 314 313 312 311 310 309 309 309 308 306 304 303 302 302 301 301 301 301 300 300 300 300 300 299 299
308 308 308 308 308 309 310 312 313 315 314 314 314 314 315 316 317 317 317 316 316 316 318 319 319 319 319 318 317 318 318 318 317 316 316 315 315 314 314 313 313 312 310 310 309 309 307 305 303 303 302 301 301 301 301 301 301 301 300 300 300 299 298
307 308 308 309 310 311 312 313 315 316 317 317 316 317 317 318 318 317 317 318 318 318 318 319 319 319 319 318 318 318 318 318 317 316 316 315 315 315 314 313 313 311 311 310 309 308 307 304 303 302 301 301 301 301 301 301 301 300 299 299 299 298 297
308 308 308 309 309 310 311 312 314 315 316 317 317 317 317 317 317 317 317 317 318 317 317 318 319 319 319 318 317 317 317 318 318 317 316 316 315 315 314 313 311 311 310 310 308 307 306 304 302 301 301 301 301 302 301 301 300 299 298 297 297 297 296
306 307 307 308 308 309 309 310 311 313 314 315 316 316 317 317 317 317 315 314 315 315 316 317 319 319 319 318 317 317 317 318 319 318 316 316 315 314 313 311 310 310 309 308 307 306 305 304 302 301 301 302 302 302 301 300 299 297 296 295 295 296 296
307 307 307 307 308 308 308 308 309 309 311 313 314 316 316 316 316 316 314 312 313 313 314 315 316 317 318 318 318 318 318 318 318 317 316 315 314 313 312 311 309 309 308 307 305 304 302 302 301 301 301 301 301 301 300 299 298 296 295 295 295 295 296
306 307 307 307 306 305 305 305 306 307 308 309 311 312 313 314 315 315 315 314 313 312 310 311 311 312 314 316 318 318 318 317 316 315 314 313 312 311 310 309 308 307 306 305 303 301 301 301 301 300 300 300 300 299 299 298 297 296 295 295 295 295 296
307 306 305 305 304 303 303 303 304 304 304 305 307 310 312 313 313 314 314 315 315 313 310 308 308 310 312 315 317 317 317 316 315 313 312 312 312 310 308 308 307 306 305 304 303 302 301 301 301 300 300 300 299 298 298 297 296 296 295 295 295 295 295
308 306 305 304 304 304 303 302 302 301 301 302 304 307 310 312 312 312 313 314 314 314 312 311 311 314 315 316 317 316 316 314 313 312 311 310 310 308 307 306 306 305 304 304 303 302 302 301 300 300 300 299 299 298 297 297 296 296 296 295 295 295 295
307 307 307 306 305 304 303 302 302 301 300 300 301 305 308 310 311 312 312 312 313 313 313 312 313 315 316 316 316 315 314 313 312 311 310 309 307 306 305 305 305 305 304 303 302 302 301 300 300 300 299 298 298 297 297 296 296 296 296 296 296 295 295
307 307 308 306 305 303 303 303 303 302 301 300 300 303 307 309 311 312 312 312 312 312 313 312 313 314 315 315 315 315 313 312 311 309 308 307 306 305 305 306 305 304 303 301 301 301 300 300 299 298 298 297 297 296 296 296 296 296 296 295 295 294 294
306 306 305 305 304 304 304 304 304 304 302 300 299 302 306 309 310 311 311 311 311 312 312 312 312 313 314 314 314 314 314 312 311 309 309 308 307 306 305 304 303 302 301 301 300 300 299 298 298 297 297 296 296 296 296 296 295 295 295 294 294 294 294
305 305 305 305 306 306 306 306 305 305 303 301 300 302 306 308 310 310 311 311 311 311 312 311 311 312 313 313 313 313 313 312 311 309 309 308 306 304 304 303 302 301 301 299 298 298 297 297 296 296 296 296 296 295 295 295 294 294 294 293 293 293 293
305 305 305 305 306 306 306 306 305 305 304 303 303 305 308 309 310 310 310 310 311 311 311 311 311 310 310 311 312 312 311 310 310 309 308 306 304 303 302 302 301 299 298 297 296 296 295 296 295 295 295 295 295 294 294 294 293 293 293 293 293 293 293
305 306 305 305 305 305 305 305 305 305 305 305 306 308 309 310 310 311 310 310 311 311 311 311 310 308 307 308 309 310 309 309 308 307 306 304 302 302 301 300 299 297 295 294 294 294 295 295 295 294 294 294 294 294 293 293 293 293 293 293 292 292 292
305 305 305 305 304 304 305 305 305 306 307 306 306 308 309 310 310 310 310 310 310 310 310 309 308 307 306 307 307 307 307 306 306 305 304 303 302 301 300 298 296 294 294 293 294 294 294 294 294 294 294 294 293 293 293 292 292 292 292 292 292 292 292
Wind_Speed
15 15 14 12 11 10 11 12 12 12 12 11 11 13 14 15 14 13 12 11 10 8 7 6 4 3 3 3 3 3 4 4 6 6 5 5 5 5 5 7 7 5 4 3 3 3 4 4 3 3 3 4 4 5 6 8 9 9 9 9 9 9 11
15 15 15 13 12 10 11 12 12 12 11 11 11 10 11 14 15 13 12 11 9 7 6 7 6 4 4 3 3 1 1 3 7 8 8 8 7 6 6 6 6 6 5 4 3 3 4 2 2 3 2 2 3 3 4 5 6 8 12 14 14 10 7
17 16 15 14 13 11 12 12 11 11 12 12 11 11 10 11 13 13 11 8 7 7 7 7 6 6 5 5 4 3 3 5 6 7 8 9 8 8 8 8 8 8 7 5 5 5 4 4 4 4 1 2 3 4 2 2 5 6 8 12 15 15 11
17 17 15 14 13 12 12 12 12 12 12 12 12 11 11 11 11 11 9 6 7 11 12 11 10 9 8 7 5 5 5 6 6 5 5 6 7 8 8 8 8 8 7 6 5 6 5 4 4 4 3 2 1 4 4 3 5 7 8 9 10 12 11
16 16 15 14 14 13 13 12 12 12 11 11 11 11 11 11 11 11 10 9 10 11 11 11 11 11 10 9 9 9 8 7 6 5 3 4 6 8 8 7 7 7 7 6 6 6 7 6 6 6 6 5 4 2 3 4 4 7 10 11 9 9 7
16 16 15 13 13 12 13 13 13 12 11 11 10 10 10 10 10 11 11 10 10 10 9 9 9 10 10 9 8 8 9 8 7 6 5 5 5 6 6 6 6 6 6 7 7 7 8 9 9 8 9 9 9 7 3 1 2 6 11 11 8 9 9
16 16 15 13 13 12 12 13 13 12 12 11 10 10 9 9 9 9 9 9 9 8 8 7 7 9 9 8 8 7 7 7 7 6 6 6 5 4 3 2 3 4 4 3 3 3 3 5 6 5 6 6 7 7 5 5 4 7 16 18 12 5 1
15 16 15 13 12 11 10 11 11 12 11 11 10 10 9 8 8 8 8 8 7 7 6 5 5 7 7 7 7 7 6 7 6 6 6 6 5 4 4 3 3 4 4 4 3 2 2 1 1 2 2 2 3 4 6 7 6 6 11 15 16 17 13
14 15 14 12 11 10 9 8 8 9 9 9 9 9 9 9 8 7 7 6 6 6 5 4 3 4 5 5 5 6 6 6 6 6 6 6 5 4 4 5 5 5 5 5 5 4 4 4 4 3 4 4 2 1 2 5 6 4 6 9 11 14 13
15 14 13 12 11 9 9 7 6 5 5 6 7 6 6 7 7 7 6 6 5 5 4 4 3 3 3 3 3 5 5 6 6 6 6 5 5 4 4 5 5 5 5 5 4 4 4 4 4 3 3 3 3 4 3 1 2 2 1 3 3 5 7
16 15 12 11 10 10 9 8 7 5 4 3 4 3 3 3 4 4 4 4 4 4 3 3 2 2 3 3 3 3 4 4 5 5 5 5 5 4 4 4 4 5 5 4 3 4 4 4 5 5 4 4 3 3 4 4 3 4 4 4 4 4 3
14 14 13 10 9 9 9 9 8 7 6 4 3 2 1 1 2 2 3 3 3 3 3 3 2 2 2 2 2 2 2 3 3 3 3 4 3 3 4 3 3 4 5 4 4 4 4 4 5 7 6 6 5 4 4 5 4 4 5 6 6 7 9
11 11 13 11 9 9 9 9 9 8 8 7 6 5 5 5 4 4 5 5 5 5 5 5 4 4 4 3 2 2 1 0 1 1 2 2 2 1 2 2 2 3 4 4 5 5 4 3 4 4 4 4 5 5 5 6 7 7 7 8 8 8 9
11 10 11 11 10 10 9 9 9 8 7 7 7 6 7 8 8 8 7 7 7 6 7 8 7 7 7 6 6 5 4 3 3 2 1 1 0 0 1 0 1 1 1 3 4 5 5 4 3 2 3 3 3 4 6 7 10 11 9 9 10 9 9
15 14 13 11 10 10 10 10 10 9 8 8 8 7 8 10 10 11 11 10 9 8 7 8 8 9 10 10 9 9 7 6 6 6 4 4 3 3 4 4 3 2 2 2 3 3 3 2 2 2 3 3 2 4 6 8 10 12 12 11 11 12 12
18 16 14 12 11 12 11 11 12 11 11 11 9 8 8 8 10 11 13 13 12 12 11 10 10 10 11 12 11 12 12 10 9 10 8 7 7 6 5 5 6 6 5 4 4 4 3 2 1 1 2 3 4 5 7 8 10 12 14 14 14 15 15
18 17 15 13 13 14 14 14 14 14 14 14 14 12 10 9 9 11 13 14 13 14 13 12 12 12 12 13 13 14 14 13 12 12 12 10 10 10 8 7 7 8 8 7 7 7 6 5 4 4 4 4 5 6 7 8 10 11 14 15 15 15 16
21 19 17 17 17 19 19 17 16 16 15 17 17 15 13 12 12 14 15 15 14 14 15 15 15 15 15 15 15 15 15 14 13 14 14 12 12 13 11 9 9 10 10 10 10 10 9 8 7 7 7 7 7 7 7 7 9 10 12 14 15 15 15
21 18 17 19 21 22 23 22 21 20 18 20 22 20 16 14 15 17 18 17 16 15 16 17 18 19 17 16 17 18 18 16 15 15 16 14 14 14 13 11 11 11 11 11 11 12 11 10 9 9 9 9 9 9 9 9 10 10 12 13 14 15 16
19 17 17 19 20 19 20 21 20 17 18 22 25 23 19 16 16 18 19 19 21 21 20 20 22 23 21 19 18 19 20 19 17 17 17 16 16 15 14 13 13 12 12 12 12 12 12 12 11 11 12 12 11 11 12 12 12 12 13 14 15 16 17
16 16 15 16 15 12 12 14 13 13 17 21 22 19 17 17 18 19 19 19 23 25 25 24 24 25 25 22 20 20 21 22 21 21 20 18 17 17 15 15 15 14 13 12 12 13 13 13 13 13 13 14 13 13 13 13 13 14 15 16 17 17 18
9 9 9 9 9 8 8 9 10 13 16 18 17 15 15 16 17 19 19 19 22 25 26 26 26 27 27 25 23 22 23 25 25 24 23 21 20 19 17 16 16 15 14 14 14 14 14 13 13 14 14 14 14 14 14 14 15 16 17 18 19 19 20
5 5 4 3 4 5 6 5 7 8 9 10 10 10 11 12 13 14 16 18 20 22 23 23 24 27 28 28 27 26 25 25 27 28 26 23 22 21 19 17 16 16 16 16 16 16 14 14 14 15 15 15 15 15 15 16 17 18 19 20 21 21 22
5 4 3 2 2 1 1 2 3 4 4 5 6 7 8 9 10 11 13 15 16 18 18 18 19 21 24 26 28 29 28 27 27 29 28 26 25 23 20 18 17 16 17 17 17 16 16 15 16 16 16 16 15 15 16 17 18 19 21 22 22 22 23
4 3 2 1 1 1 1 1 2 3 4 5 6 8 9 9 10 11 12 13 14 14 15 15 16 18 20 23 26 29 30 29 28 30 30 28 27 24 21 19 17 17 18 18 18 17 17 17 18 18 18 17 17 18 19 20 21 21 22 23 23 23 23
4 4 3 4 5 6 6 6 5 5 5 7 8 10 10 10 11 13 14 13 13 13 14 14 15 16 18 20 22 25 29 30 29 31 31 29 28 24 20 19 18 17 18 18 18 18 19 20 20 19 19 19 20 21 22 22 23 23 23 24 24 24 23
6 6 7 8 9 10 10 10 10 9 9 9 9 10 11 12 12 14 16 16 15 14 14 14 15 16 17 19 21 24 27 28 28 29 30 28 26 23 20 18 18 18 18 18 18 19 20 21 20 19 19 19 21 22 23 23 23 23 24 25 26 26 24
7 8 9 9 9 8 7 7 8 9 10 11 11 11 11 12 13 14 16 17 16 15 14 15 16 17 18 19 19 20 23 25 27 28 27 24 22 20 18 18 17 17 17 18 19 20 20 20 20 20 20 21 22 23 24 24 24 25 25 26 27 27 26
7 8 8 9 7 6 5 4 5 6 7 9 10 11 11 12 13 14 15 15 15 15 15 16 17 17 18 18 17 17 20 25 28 28 24 21 21 20 18 18 17 17 18 18 19 19 18 18 18 20 21 22 24 25 26 27 26 26 27 27 28 28 28
9 9 10 9 8 6 6 6 6 6 6 7 9 10 11 12 14 15 16 16 16 16 16 16 16 16 16 16 16 17 20 24 25 24 21 20 21 19 18 17 17 18 19 19 19 18 18 18 19 21 23 24 26 27 28 28 28 28 29 29 29 30 30
10 10 11 10 10 11 11 11 10 8 7 7 8 10 11 13 14 15 16 18 18 18 17 17 16 15 15 15 16 18 21 22 22 20 18 18 18 16 16 17 19 20 20 19 18 18 18 20 21 23 25 26 28 28 29 30 31 31 32 32 33 33 34
10 11 12 13 14 15 14 13 13 11 9 9 9 10 12 14 16 17 18 18 19 18 18 17 17 16 15 15 16 18 20 21 20 18 18 17 15 15 17 19 19 19 17 16 17 18 20 22 24 25 26 28 29 30 30 32 33 35 36 37 36 36 35
14 14 15 15 16 16 16 15 15 15 13 12 10 12 14 16 17 18 19 19 19 19 19 18 17 15 14 15 16 18 20 21 20 19 18 18 17 17 18 19 18 17 17 17 19 21 23 24 25 26 27 29 31 32 33 34 36 36 36 36 34 33 32
15 14 14 14 14 14 16 17 18 18 17 15 12 14 16 17 18 19 19 19 20 20 19 18 16 14 12 14 16 19 20 20 19 19 19 18 17 17 18 18 18 18 20 21 23 24 24 25 26 27 29 31 32 33 34 34 34 32 31 29 28 28 28
16 16 16 15 15 16 19 20 21 21 19 16 14 15 17 18 19 20 21 20 20 19 18 17 14 11 11 13 16 19 20 19 19 19 18 18 17 17 18 20 21 22 24 24 24 24 25 26 27 29 30 30 30 30 29 28 27 25 24 23 24 25 24
16 17 17 17 18 20 21 22 22 21 18 14 14 17 18 18 19 20 20 20 18 16 15 14 12 10 11 13 15 17 18 19 19 19 19 18 18 18 20 22 23 24 24 23 23 23 25 26 27 27 26 25 25 24 23 22 21 20 20 21 21 22 22
20 20 20 21 21 22 22 22 22 20 16 13 14 17 18 18 19 19 18 16 14 13 12 11 11 11 12 13 15 17 19 19 19 19 19 19 19 20 22 23 23 22 21 20 21 22 22 22 21 21 20 20 20 19 19 19 19 19 20 21 21 22 22
Wind_Direction
147 138 132 128 124 124 117 105 97 96 100 100 111 136 150 152 146 135 131 134 141 147 150 155 154 141 143 142 121 81 68 107 137 146 151 155 162 170 179 193 197 180 166 187 207 224 238 236 230 233 257 272 276 280 274 270 266 253 254 268 272 271 263
145 140 138 136 133 127 112 100 93 90 93 94 93 104 131 152 154 143 139 145 145 151 173 185 184 180 190 215 242 274 47 121 130 133 131 126 132 140 141 151 160 155 150 148 153 192 217 220 184 139 67 346 317 315 300 296 297 279 270 267 263 266 271
151 146 143 140 131 120 108 103 102 96 91 90 89 86 94 122 147 154 157 161 155 141 143 156 161 160 168 188 217 227 203 165 143 136 130 125 131 141 145 150 154 156 154 147 149 167 179 174 163 143 94 358 18 28 12 344 1 347 307 281 265 259 265
156 153 148 142 132 122 114 108 105 103 99 95 95 95 91 96 115 135 148 145 123 113 111 112 113 112 115 119 112 114 141 157 155 155 151 146 151 156 159 160 159 160 161 161 166 174 184 191 185 185 208 228 39 62 91 80 28 6 340 317 283 261 260
160 158 151 142 134 126 117 110 108 106 105 104 103 102 101 101 104 112 117 111 104 102 98 97 98 95 93 92 90 92 103 120 133 141 151 163 173 176 176 178 177 174 177 189 201 210 219 226 227 227 236 246 245 210 111 85 35 353 336 330 307 277 263
163 158 153 145 138 128 118 113 111 106 102 103 103 104 105 105 107 109 108 106 103 98 92 91 94 92 86 81 80 80 85 93 98 101 98 101 135 169 178 181 180 176 186 203 215 225 229 233 240 244 253 262 258 251 228 150 47 32 33 19 333 282 265
164 158 157 152 141 132 122 117 115 110 103 99 98 100 102 104 107 109 109 108 105 100 94 90 92 91 85 79 79 78 80 85 87 90 92 90 98 121 142 146 138 137 149 179 204 220 225 234 247 252 248 248 252 252 219 171 146 86 69 59 54 67 256
166 162 162 159 150 140 131 123 119 115 109 105 100 96 96 98 101 103 107 109 107 105 100 91 86 83 79 76 79 81 82 85 90 94 99 104 109 113 101 86 93 104 92 74 68 66 64 46 325 322 297 255 232 225 189 167 160 117 79 72 82 88 85
174 170 169 168 163 152 142 134 124 117 112 111 107 99 96 94 92 93 96 101 105 109 105 99 88 74 75 75 71 75 81 85 90 90 93 103 111 112 104 102 105 102 91 83 77 68 62 57 50 30 2 353 344 310 189 183 181 152 83 73 93 99 95
183 181 177 172 170 165 156 148 143 138 125 119 114 104 97 94 89 85 85 85 90 94 97 100 100 81 80 77 64 68 73 79 84 83 83 92 96 92 91 98 103 97 91 96 97 85 76 76 74 67 41 23 7 359 358 326 227 236 324 31 65 107 109
189 187 183 172 172 177 173 168 173 178 176 155 135 120 99 84 75 76 77 71 69 67 64 70 72 61 66 68 63 62 59 60 68 74 79 84 83 80 81 83 84 80 74 77 96 95 89 84 71 60 52 40 27 8 354 348 336 305 290 307 315 298 280
193 188 184 179 182 190 192 189 191 199 212 224 224 231 265 337 360 9 16 17 24 20 7 20 20 8 22 40 51 58 59 67 73 77 81 83 81 70 73 81 73 66 58 47 51 64 76 90 80 62 52 41 35 26 360 342 337 322 299 288 289 290 284
193 183 182 188 196 201 205 203 203 208 217 232 247 264 281 293 299 308 318 322 324 327 325 325 323 319 321 324 332 338 316 24 57 82 97 96 99 89 82 93 69 48 41 34 32 32 32 60 87 72 55 45 32 15 356 340 329 327 326 308 297 293 283
192 183 182 192 196 194 199 203 205 208 216 233 248 264 283 295 297 296 296 300 303 304 307 310 309 307 305 303 301 294 277 272 299 306 232 206 358 317 290 310 83 53 15 8 16 19 18 24 37 29 18 25 14 346 334 327 318 318 329 326 315 315 309
193 188 185 188 185 184 191 197 198 199 204 219 234 251 273 289 295 296 295 296 296 295 297 299 300 302 302 299 296 293 284 271 280 290 279 275 297 294 287 304 319 322 331 339 344 349 1 18 5 342 339 328 300 291 292 298 305 312 325 332 329 328 328
196 194 192 196 197 196 199 203 206 207 206 208 217 232 253 275 289 294 296 296 296 297 297 296 297 299 299 296 292 291 289 282 276 279 281 281 286 284 272 282 304 314 319 320 319 322 326 336 336 314 310 300 287 284 288 297 307 315 322 329 331 329 328
203 199 196 204 213 215 217 222 224 223 222 222 223 226 231 244 261 274 283 286 285 287 287 289 293 295 295 294 289 285 286 284 277 275 278 279 280 284 277 273 291 305 313 319 320 324 324 323 328 326 321 318 311 310 311 310 310 311 314 321 325 324 322
214 213 215 220 224 225 226 230 233 232 236 238 236 235 235 238 247 257 265 268 268 271 275 276 277 280 283 285 285 283 281 280 276 274 277 277 275 277 279 280 291 302 311 317 318 320 321 321 321 319 315 314 311 312 314 310 305 304 306 313 320 322 320
220 227 233 231 229 229 230 234 239 242 247 251 251 254 255 251 254 261 263 260 255 255 256 258 261 262 263 268 273 275 274 273 273 272 273 273 269 271 276 280 287 296 303 310 314 316 318 316 312 307 307 310 313 315 317 315 313 309 307 309 315 318 320
223 230 234 233 232 235 237 240 242 242 246 253 256 258 258 254 257 261 260 256 252 249 246 250 256 260 259 258 258 263 268 266 264 266 267 266 265 266 269 273 281 288 293 302 310 312 311 309 306 305 307 310 314 316 317 316 316 314 313 313 314 315 317
212 216 221 224 221 221 228 233 236 240 247 254 258 258 258 257 252 248 247 249 250 249 247 247 251 256 260 259 253 254 261 262 261 262 260 257 260 263 265 270 278 283 289 296 301 301 302 302 301 303 305 307 309 312 313 314 315 314 313 314 314 313 311
207 212 220 231 234 234 238 238 239 245 249 254 258 258 259 258 250 243 244 247 249 249 250 251 252 251 254 259 257 251 252 255 258 258 254 251 254 259 264 271 278 283 287 290 293 295 296 296 298 299 300 302 305 308 310 312 313 314 313 313 313 310 306
188 198 212 242 260 250 246 239 235 238 243 248 252 253 255 257 256 255 255 254 255 257 258 260 257 252 251 256 257 251 248 252 253 251 248 248 250 255 261 268 274 278 282 286 290 291 292 294 298 299 299 300 302 306 308 310 311 311 311 310 309 308 306
160 158 149 121 105 132 188 226 234 233 233 243 253 259 266 271 273 273 268 263 261 262 262 262 261 260 258 258 256 251 248 250 250 246 245 247 251 255 259 263 266 271 278 284 285 286 291 297 300 300 299 299 300 302 303 305 309 310 309 307 306 306 306
169 152 146 148 167 195 205 222 257 265 263 268 274 273 274 279 283 283 278 272 266 263 263 265 268 270 267 262 258 252 246 246 247 246 245 247 251 253 255 257 261 268 279 284 284 287 295 300 300 298 297 300 302 303 305 309 313 313 310 308 306 306 306
175 170 189 209 215 217 219 222 228 242 259 269 273 273 273 274 280 284 282 278 274 269 267 267 267 269 268 262 255 248 245 247 250 249 246 245 247 249 252 254 259 271 279 281 281 287 295 298 296 294 297 301 303 305 308 312 314 314 312 311 309 308 309
180 193 209 219 224 228 232 232 229 229 236 242 251 261 267 270 274 278 279 281 281 277 271 268 267 267 265 261 254 250 249 249 248 245 241 240 242 245 250 256 264 272 276 277 281 288 293 295 293 292 294 297 300 303 305 307 309 308 309 309 309 308 308
201 212 221 227 234 238 238 236 234 234 236 240 245 251 258 263 266 270 274 277 278 277 272 269 269 267 265 265 263 257 251 246 238 231 228 231 239 245 249 255 260 263 267 275 284 288 291 292 291 291 293 295 299 301 301 302 303 304 305 306 306 307 307
230 240 247 252 258 257 250 251 255 257 257 252 249 251 256 260 261 263 270 273 273 275 274 270 271 272 271 273 273 264 254 244 233 224 221 230 242 246 248 251 254 257 266 275 280 282 284 286 286 286 287 290 294 297 298 300 301 301 301 302 302 303 303
242 257 268 274 277 274 275 282 283 283 285 273 255 251 255 262 263 262 266 269 271 274 276 275 276 277 276 276 273 262 251 241 233 229 233 238 241 242 247 253 259 266 271 275 277 280 282 282 279 279 281 285 289 292 295 297 297 297 298 298 298 298 297
247 255 264 271 274 278 281 283 285 290 295 290 273 258 255 261 265 262 260 263 265 268 272 274 275 275 272 268 263 255 247 242 240 240 240 237 238 244 253 260 267 271 274 276 279 282 281 279 278 280 283 287 289 290 293 294 294 294 295 295 295 295 293
237 242 254 263 272 278 280 281 284 290 296 296 284 263 253 256 261 261 260 261 263 264 265 267 270 271 267 263 258 253 249 245 240 235 233 235 240 247 256 261 263 264 266 271 274 275 275 277 279 282 284 286 287 289 292 293 293 294 295 295 296 296 295
244 250 259 266 273 278 280 282 284 287 292 295 284 262 252 253 258 260 260 260 261 262 262 265 268 266 261 258 255 250 246 245 241 238 241 247 248 250 255 255 252 251 256 261 264 268 271 275 278 280 283 285 288 290 292 293 293 295 296 297 298 299 300
256 258 260 265 269 271 274 277 279 283 289 292 280 261 254 256 259 260 259 259 259 259 260 263 263 259 251 248 247 244 242 245 249 252 254 254 249 245 247 247 247 254 261 263 266 268 272 275 278 280 283 286 289 291 293 294 295 297 298 300 302 304 307
256 255 255 257 258 259 263 269 274 278 284 285 271 259 259 262 262 260 259 258 257 257 258 257 254 254 252 246 243 241 240 244 252 255 254 249 242 239 244 251 258 264 266 268 270 273 276 280 283 285 288 290 292 294 295 297 299 302 304 307 309 311 315
257 256 254 254 258 260 262 265 269 274 279 274 259 255 261 265 265 262 258 255 254 253 251 248 246 252 257 252 244 242 242 244 248 248 245 242 242 246 252 259 263 266 269 273 277 280 284 287 289 292 293 295 298 300 303 306 308 309 310 311 312 315 319
261 260 260 260 261 262 262 264 266 269 270 262 252 254 261 265 265 262 257 253 251 247 245 245 244 242 246 248 243 239 239 240 241 242 243 246 249 253 257 262 266 271 275 281 284 287 290 293 296 299 302 306 310 312 312 311 310 310 311 312 315 317 319